HORYU-IV

Last updated on Sat Feb 09 2019 03:04:20 GMT+0000 (Coordinated Universal Time)

1 41340U 16012D 19039.84862859 .00000395 00000-0 23303-4 0 9996 2 41340 31.0040 240.7976 0014270 280.5003 79.4025 15.01165814163480
UTC large
Height (km)
Speed (km/s)
/
Latitude / Longitude
Inclination (degrees)
Orbital Period (minutes)
Azimuth
Elevation
Range (km)
Doppler Factor

Next 0 passes for location: London (51.5072 / 0.1276)

Sorry there are no passes over London.